Location: ??????
(41.3379°N, 20.6001°E)
Time: 20:24:38
(UTC+00:00)

Daily predictions for brighter satellites

Satellite Brightness Start Highest point End
(mag) Time Altitude Azimuth Time Altitude Azimuth Time Altitude Azimuth
Atlas Centaur 2 3.3 18:40:55 10° SW 18:45:28 28° S 18:50:59 10° ESE
Cosmos 2150 Rocket 4.4 18:43:47 10° NNW 18:48:58 67° WSW 18:54:10 10° S
Cosmos 2333 Rocket 3.4 18:46:29 10° SSE 18:50:38 21° E 18:54:49 10° NE
Meteor 2-1 Rocket 4.5 18:44:55 10° N 18:50:43 62° ENE 18:56:33 10° SSE
H-2A ROCKET BODY 3.8 18:49:08 10° SW 18:52:55 26° SSE 19:03:16 10° ESE
ATLAS CENTAUR R/B 2.7 18:52:55 10° WNW 18:54:47 23° SW 18:57:45 10° SSE
CZ-2C R/B 2.9 18:50:44 10° N 18:56:09 76° WNW 19:01:23 10° SSW
MetOp-A 4.4 18:50:55 10° S 18:56:15 74° WSW 19:01:38 10° NNW
SL-16 R/B 3.2 18:53:56 10° SW 18:59:27 53° WNW 19:05:01 10° NNE
GEOS 3 Rocket 4.2 18:56:23 10° NE 19:01:22 37° ESE 19:06:17 10° S
Delta 2 Rocket 3.7 18:58:31 10° WSW 19:01:38 31° S 19:04:23 11° ESE
BREEZE-M DEB (TANK) 3.2 18:58:50 10° NW 19:02:37 61° NNE 19:06:27 10° ESE
Cosmos 1812 Rocket 3.6 18:59:25 10° N 19:03:44 65° E 19:08:02 10° SSE
Spot 2 Rocket 4.4 18:59:20 10° SE 19:03:54 35° ENE 19:08:30 10° N
Cosmos 1602 Rocket 3.7 19:03:10 10° S 19:07:34 82° W 19:12:02 10° N
ATLAS 5 CENTAUR R/B 1.4 19:03:52 10° SSW 19:07:55 80° ESE 19:12:24 10° NE
OAO 2 Rocket 4.0 19:04:40 10° WSW 19:09:34 39° S 19:14:30 10° ESE
Cosmos 2278 Rocket 4.3 19:09:21 10° NNE 19:11:59 13° NE 19:14:36 10° ENE
Meteor 2-10 Rocket 3.5 19:07:56 10° N 19:13:05 76° E 19:18:24 10° SSE
Nadezhda 1 Rocket 4.1 19:08:02 10° N 19:14:28 73° E 19:20:49 10° SSE
Cosmos 1844 Rocket 3.0 19:09:48 10° NNW 19:15:16 54° ENE 19:19:57 14° SE
Cosmos 1125 Rocket 4.0 19:11:08 10° NNW 19:16:19 61° WSW 19:21:30 10° S
SPOT 1/Viking Rocket 4.2 19:20:05 14° SE 19:24:05 41° ENE 19:28:55 10° N
Cosmos-2242 3.2 19:27:39 10° N 19:31:57 57° E 19:35:05 18° SSE
Cosmos 1400 Rocket 2.9 19:29:55 10° N 19:33:51 58° E 19:36:24 20° SSE
Alouette 2 Rocket 4.0 19:31:19 10° N 19:35:15 56° ENE 19:39:14 17° SSE
Resurs 01 Rocket 2.3 19:32:05 10° S 19:36:22 52° W 19:40:42 10° NNW
Terra 3.3 19:36:04 15° ESE 19:38:43 23° ENE 19:42:28 10° NNE
BREEZE-M DEB (TANK) 3.0 19:37:06 10° SW 19:43:52 51° SSE 19:46:18 10° ENE
Cosmos 2322 Rocket 4.4 19:41:30 10° WSW 19:46:17 28° NW 19:51:06 10° N
SAR-Lupe-2 3.7 19:43:03 10° NNE 19:46:35 54° E 19:48:38 23° S
NOSS 3-3 (A) 3.8 19:43:15 10° SSW 19:48:53 65° ESE 19:55:13 10° NE
NOSS 3-3 (C) 3.8 19:43:20 10° SSW 19:49:00 64° ESE 19:55:20 10° NE
BREEZE M DEB (TANK) 3.0 19:48:10 10° NW 19:50:35 33° NNE 19:51:26 23° ENE
Cosmos 1758 Rocket 4.3 19:48:52 10° SSW 19:53:15 54° W 19:57:41 10° N
IRIS 3.6 19:51:31 10° W 19:54:37 88° S 19:55:22 40° E
USA 245 3.2 19:54:56 25° S 19:56:42 69° W 20:00:43 10° NNW
Cosmos 1455 3.5 19:53:50 10° NNW 19:57:23 37° W 20:00:42 12° SSW
Cosmos 2344 4.5 19:55:08 21° SE 19:57:37 24° ESE 20:03:25 10° ENE
Cosmos 1328 4.5 19:54:44 10° SSW 19:58:37 54° W 20:02:32 10° N
Cosmos 1538 Rocket 4.0 19:58:34 11° S 20:03:44 72° ESE 20:09:04 10° NNE
COSMOS 2428 2.6 20:02:57 10° SSW 20:08:37 79° ESE 20:14:18 10° NNE
ATLAS 2AS CENTAUR R/B 4.2 20:02:45 10° NNW 20:09:17 30° NE 20:15:15 10° E
Cosmos 2322 4.3 20:05:50 10° SW 20:11:29 60° WNW 20:17:08 10° NNE
OAO 3 Rocket 4.3 20:07:57 10° WSW 20:12:02 26° SSW 20:12:52 25° S
Cosmos 1844 3.9 20:06:55 10° NNW 20:12:38 66° WSW 20:16:01 25° S
Cosmos 2074 Rocket 4.3 20:09:51 26° SSE 20:13:04 48° E 20:19:00 10° NNE
Cosmos 2181 Rocket 4.0 20:07:03 10° N 20:13:25 80° E 20:17:10 26° SSE
DELTA 2 R/B (1) 3.7 20:09:34 10° SW 20:14:56 50° SSE 20:20:20 10° E
Cosmos 1953 Rocket 4.1 20:12:55 14° SSW 20:16:32 56° W 20:20:48 10° N
Cosmos 2084 3.9 20:13:25 10° NNW 20:17:47 53° NE 20:19:31 32° ESE
ERS-1 Rocket 2.9 20:16:48 29° SSE 20:19:25 88° WSW 20:24:29 10° NNW
Cosmos 2237 Rocket 2.8 20:17:54 30° SE 20:19:35 37° ESE 20:24:47 10° NE
Cosmos 2219 Rocket 2.3 20:14:55 10° SSW 20:20:29 75° WNW 20:26:07 10° NNE
USA 215 3.2 20:16:45 10° NE 20:23:20 88° SE 20:29:53 10° SW
Cosmos 2360 Rocket 4.3 20:18:46 10° WSW 20:23:31 27° NW 20:28:19 10° N
ATLAS CENTAUR R/B 1.2 20:20:24 10° NNW 20:24:02 60° NE 20:24:46 47° ESE
Meteor 1-27 4.2 20:19:35 10° N 20:25:22 86° E 20:28:18 31° SSE
SPOT 5 2.9 20:23:12 32° SSE 20:25:34 88° WSW 20:30:25 10° NNW
Cosmos 1869 3.8 20:22:31 10° N 20:26:21 44° ENE 20:27:01 40° ESE
Cosmos 1842 Rocket 3.6 20:24:01 10° N 20:28:19 60° E 20:29:24 44° SE
Cosmos 158 Rocket 4.5 20:29:47 34° ESE 20:30:14 34° ESE 20:34:39 10° NE
Atlas Centaur 2 3.4 20:28:48 10° WSW 20:34:01 28° S 20:34:39 28° S
Cosmos 2333 Rocket 2.9 20:28:53 10° SW 20:34:26 54° WNW 20:40:03 10° NNE
Cosmos 967 Rocket 4.4 20:32:19 10° SSW 20:38:47 83° ESE 20:45:17 10° NNE
BREEZE-M DEB (TANK) 4.0 20:43:57 23° E 20:43:57 23° E 20:46:35 10° ENE
NOSS 0 Rocket 3.8 20:38:25 24° SSW 20:42:19 76° ESE 20:48:29 10° NNE
Cosmos 1315 Rocket 3.5 20:44:43 10° NNW 20:48:43 51° W 20:49:47 39° SW
Meteor 2-2 Rocket 4.2 20:45:14 10° N 20:51:04 82° E 20:53:04 43° SSE
Cosmos 1892 2.6 20:51:28 69° E 20:51:28 69° E 20:55:13 10° NNE
OAO 2 Rocket 3.9 20:49:00 10° WSW 20:53:38 39° SSW 20:53:38 39° SSW
USA 267 3.9 20:49:19 18° E 20:54:05 52° NNE 21:00:24 10° NW
Cosmos 2278 Rocket 2.2 20:51:24 10° NNW 20:57:05 75° ENE 20:58:50 46° SE
Cosmos 44 4.5 21:02:28 24° ENE 21:02:28 24° ENE 21:04:45 10° NE
Cosmos 1680 Rocket 3.4 20:59:29 46° S 21:01:05 77° ESE 21:06:25 10° NNE
MTI 4.4 20:59:39 10° N 21:02:17 51° NW 21:02:17 51° NW
Cosmos 1408 3.2 21:03:39 45° NE 21:03:39 45° NE 21:06:27 10° NNE
SL-16 R/B 3.1 21:04:44 31° ESE 21:04:44 31° ESE 21:09:36 10° NE
BREEZE-M R/B 3.9 21:02:46 10° WNW 21:11:47 55° SW 21:12:48 48° S
Cosmos 2184 Rocket 4.3 21:08:51 27° SSW 21:12:16 61° W 21:18:31 10° N
Cosmos 2221 3.1 21:10:20 10° NNW 21:14:33 48° W 21:15:14 44° WSW
Terra 2.8 21:14:58 32° SW 21:16:13 37° W 21:20:40 10° NNW
In-Cosmos 22 Rocket 4.3 21:14:18 37° SW 21:16:18 64° WNW 21:21:36 10° N
Cosmos 2058 3.7 21:27:38 39° WSW 21:28:16 43° WNW 21:32:14 10° N
Okean 3 Rocket 4.0 21:30:13 48° ENE 21:30:13 48° ENE 21:34:09 10° NNE
TSX-5 4.3 21:26:46 10° NW 21:30:04 53° W 21:30:04 53° W
NOSS 3-4 (A) 3.9 21:26:00 10° NNW 21:33:07 82° NE 21:36:04 42° SE
NOSS 3-4 (C) 3.9 21:26:07 10° NNW 21:33:14 81° NE 21:36:12 42° SE
Cosmos 2218 Rocket 4.5 21:32:57 40° ESE 21:34:07 44° E 21:40:03 10° NNE
TIMED 4.5 21:36:52 80° WNW 21:36:52 80° WNW 21:41:16 10° NNE
Cosmos 2366 rocket 4.5 21:37:17 41° ESE 21:38:25 45° E 21:44:25 10° NNE
Cosmos 1825 2.7 21:39:57 58° NNW 21:39:57 58° NNW 21:43:07 10° N
Cosmos 1340 4.4 21:40:48 24° ENE 21:40:48 24° ENE 21:42:50 10° NNE
Cosmos 1624 Rocket 3.9 21:35:23 10° NNW 21:40:38 78° ENE 21:41:12 68° SE
EO 1 Delta rocket 4.4 21:41:45 10° N 21:47:01 77° W 21:48:47 48° SSW
Cosmos 2369 Rocket 4.2 21:44:23 10° N 21:48:30 20° NE 21:51:33 14° E
Cosmos 2151 3.3 21:55:43 60° WNW 21:55:43 60° WNW 21:59:50 10° N
COSMOS 2455 4.0 21:50:22 10° NNW 21:55:53 35° NE 21:58:41 24° E
Cosmos 2341 Rocket 4.0 21:55:15 52° SSW 21:56:50 77° W 22:03:05 10° N
Helios 1A 4.3 21:57:31 29° ENE 21:57:31 29° ENE 22:01:02 10° N
Thor Agena Rocket 4.1 21:55:22 10° N 22:00:17 50° WNW 22:01:29 41° WSW
Cosmos 1933 4.1 21:56:29 10° N 21:59:44 48° NE 21:59:44 48° NE
ATLAS 2AS CENTAUR R/B 2.7 21:53:34 10° NW 22:01:00 75° WSW 22:02:39 55° S
DELTA 2 R/B (1) 3.4 21:55:35 10° W 22:01:10 76° S 22:01:15 75° SSE
Cosmos 2237 Rocket 3.7 21:59:39 15° WSW 22:03:39 33° WNW 22:08:47 10° N
BREEZE-M DEB (TANK) 3.8 22:01:36 10° NW 22:03:23 23° NNW 22:03:23 23° NNW
Spot 4 4.3 22:06:50 49° W 22:06:52 49° W 22:11:30 10° NNW
Cosmos 1371 Rocket 4.3 22:03:32 10° NNW 22:08:38 52° WSW 22:08:50 51° WSW
Meteor 2-12 Rocket 4.3 22:09:55 64° S 22:10:57 85° E 22:17:07 10° N
Cosmos 2344 3.9 22:05:02 16° SW 22:11:13 60° NW 22:19:08 10° NNE
SL-8 Rocket 3.9 22:11:02 58° SSW 22:12:18 78° W 22:18:30 10° N
Cosmos 1408 Rocket 3.8 22:15:03 65° NNE 22:15:03 65° NNE 22:18:53 10° N
Cosmos 1151 Rocket 3.2 22:11:58 10° N 22:15:44 67° NNW 22:15:44 67° NNW
Cosmos 1782 4.1 22:14:30 10° N 22:17:28 33° NE 22:17:28 33° NE
ALOS 2 2.8 22:18:57 64° NW 22:18:57 64° NW 22:22:52 10° NNW
Cosmos 1346 Rocket 3.8 22:20:27 40° NE 22:20:27 40° NE 22:23:12 10° NNE
CZ-4C R/B 4.2 22:15:31 10° NNW 22:22:00 35° NE 22:29:19 10° ESE
Cosmos 332 Rocket 4.0 22:17:57 10° NNW 22:22:43 59° ENE 22:22:46 59° ENE
Cosmos 1500 Rocket 4.4 22:24:24 42° ENE 22:24:24 42° ENE 22:27:57 10° NNE
Cosmos 1420 Rocket 3.8 22:18:26 10° NNW 22:23:44 85° WSW 22:23:55 82° SSW
Helios 1B rocket 4.4 22:21:32 10° NE 22:23:47 21° ENE 22:23:47 21° ENE
Cosmos 1727 Rocket 4.0 22:22:03 10° N 22:28:18 73° E 22:29:27 58° SE
SL-08 R/B 4.5 22:29:44 61° SSE 22:30:54 77° E 22:37:20 10° N
Cosmos 1633 4.0 22:32:54 36° NNE 22:32:54 36° NNE 22:35:12 10° NNE
Cosmos 2056 Rocket 4.4 22:27:26 10° NW 22:32:24 37° W 22:32:26 37° WSW
GP-B 3.8 22:29:04 10° N 22:33:05 46° WNW 22:33:05 46° WNW
USA 267 3.4 22:36:39 50° SW 22:37:04 51° SW 22:43:26 10° NW
Cosmos 1606 4.3 22:34:52 10° NNW 22:37:25 29° WNW 22:37:25 29° WNW
Cosmos 2278 Rocket 4.2 22:37:26 10° WNW 22:40:25 15° W 22:40:40 15° W
RESURS DK-1 4.1 22:37:01 10° N 22:40:27 25° NE 22:41:06 24° ENE
Cosmos 1943 3.7 22:41:16 43° ESE 22:41:16 43° ESE 22:46:35 10° NE
Cosmos 1048 Rocket 3.9 22:42:50 82° SE 22:42:57 83° ESE 22:48:15 10° NNE
Cosmos 2297 3.9 22:38:12 10° NNW 22:43:45 53° WSW 22:43:52 53° WSW
Gbstr 26 Del rocket 3.7 22:44:19 46° NNW 22:44:19 46° NNW 22:48:02 10° NE
Cosmos 1943 Rocket 2.2 22:39:01 10° NNW 22:44:43 75° ENE 22:45:29 64° ESE
SL-16 R/B 3.3 22:46:35 29° W 22:48:38 38° WNW 22:53:56 10° N
Cosmos 371 Rocket 3.9 22:47:14 10° NNW 22:51:21 47° W 22:51:21 47° W
Lacrosse 5 rocket 3.1 22:54:34 10° NNW 22:57:59 27° NNE 22:59:14 22° ENE
Cosmos 1452 Rocket 3.6 22:54:18 10° NNW 22:59:20 61° W 22:59:20 61° W
Cosmos 1515 Rocket 4.3 22:56:38 10° NNW 23:00:08 44° WNW 23:00:08 44° WNW
ISS -1.1 23:04:52 16° ENE 23:04:52 16° ENE 23:05:36 10° ENE
Cosmos 1110 Rocket 4.4 22:57:02 10° NNW 23:02:15 57° ENE 23:03:08 50° ESE
Cosmos 1269 Rocket 4.4 23:05:52 49° ESE 23:05:56 49° ESE 23:11:01 10° NNE
SeaSat 1 3.9 23:04:23 10° NE 23:08:09 25° ESE 23:08:09 25° ESE
Cosmos 2228 Rocket 3.6 23:17:25 10° NNW 23:21:26 53° WNW 23:21:26 53° WNW
Resurs 1-4 Rocket 3.6 23:18:24 10° NE 23:22:45 25° E 23:23:48 23° ESE
Cosmos 1603 3.7 23:22:36 59° WSW 23:23:31 71° WNW 23:29:14 10° NNE
Cosmos 1633 Rocket 3.8 23:27:34 42° E 23:27:34 42° E 23:31:39 10° NNE
Meteor 2-6 Rocket 4.0 23:22:48 10° NNW 23:28:14 71° W 23:28:38 68° SW
Sich 1 3.1 23:29:53 73° NNE 23:29:53 73° NNE 23:33:51 10° N
Meteor 1-10 Rocket 4.0 23:24:04 10° N 23:29:39 85° W 23:30:21 69° S
SL-4 R/B 4.0 23:32:14 15° NE 23:32:14 15° NE 23:32:53 10° NE
Cosmos 1821 Rocket 4.2 23:30:58 49° WSW 23:32:10 57° W 23:38:10 10° N
CZ-4 R/B 4.1 23:27:37 10° N 23:32:11 52° WNW 23:32:25 52° W
Cosmos 44 Rocket 3.2 23:32:07 70° WNW 23:32:13 70° WNW 23:36:58 10° NNE
Cosmos 2369 Rocket 2.1 23:27:27 10° NNW 23:33:00 64° WSW 23:33:18 63° SW
Lacrosse 5 3.3 23:36:20 26° ESE 23:36:20 26° ESE 23:39:57 10° ENE
Cosmos 2123 Rocket 3.9 23:33:02 10° N 23:39:15 87° E 23:40:48 54° SSE
COSMOS 2455 3.3 23:36:15 10° NW 23:41:47 41° WSW 23:41:47 41° WSW
Cosmos 1535 Rocket 4.4 23:40:56 55° SSW 23:42:27 83° W 23:48:48 10° N
Cosmos 1656 Rocket 3.6 23:37:45 10° NNW 23:43:11 78° ENE 23:44:30 53° SE
USA 32 4.2 23:51:42 54° WSW 23:52:17 57° W 23:57:29 10° N
Cosmos 1812 3.6 23:48:34 10° NNW 23:51:25 41° NW 23:51:25 41° NW
